Flag for Germany Weather past 2 weeks in Homburg (Saar), Saarland, Germany

Now
45 °F

Passing clouds.


Feels Like: 40 °F
Forecast: 33 / 55 °F
Wind: 9 mph from West

Location: Zweibrucken - Rheinland-Pfalz

Current Time: Oct 23, 2014 at 2:41:29 AM

Latest Report: Oct 23, 2014 at 1:50 AM


Visibility: N/A

Pressure: 30.21 "Hg

Humidity: 93%

Dew point: 43 °F

Location of Homburg (Saar)Location

Historic Weather in Homburg (Saar) — Graph

°F

Homburg (Saar) temperature yesterday

Maximum temperature yesterday: 46 °F (at 2:50 PM)
Minimum temperature yesterday: 41 °F (at 5:20 AM)
Average temperature yesterday: 44 °F

Past Weeks' High & Low Weather Summary

 TemperatureHumidityPressure
High72 °F (Oct 18, 3:50 PM)100% (Oct 8, 5:20 PM)30.21 "Hg (Oct 8, 5:20 PM)
Low41 °F (Oct 22, 5:20 AM)64% (Oct 18, 2:50 PM)29.62 "Hg (Oct 21, 5:50 PM)
Average57 °F89%29.93 "Hg
* Reported Oct 8 1:20 AM — Oct 23 1:20 AM, Homburg (Saar), Weather by CustomWeather, © 2014

Note: Actual official high and low records may vary slightly from our data, if they occured in-between our weather recording intervals... More about our weather records

Advertising

Homburg (Saar) weather history for previous 24 hours

 ConditionsComfort  
Time TempWeatherWind HumidityBarometerVisibility
1:20 AM
Oct 23
45 °FPassing clouds.9 mph93%30.21 "HgN/A
9:50 PM
Oct 22
46 °FPassing clouds.12 mph82%30.18 "HgN/A
9:20 PM46 °FPartly cloudy.16 mph82%30.15 "HgN/A
8:50 PM46 °FPartly cloudy.15 mph82%30.15 "HgN/A
8:20 PM46 °FCloudy.15 mph82%30.15 "HgN/A
7:50 PM46 °FLight rain. Broken clouds.12 mph82%30.15 "HgN/A
7:20 PM46 °FPartly sunny.16 mph82%30.12 "HgN/A
6:50 PM45 °FLight rain. Partly sunny.15 mph87%30.12 "HgN/A
6:20 PM46 °FLight rain. Partly sunny.16 mph82%30.12 "HgN/A
5:50 PM46 °FPartly sunny.16 mph82%30.12 "HgN/A
5:20 PM46 °FPartly sunny.17 mph82%30.09 "HgN/A
4:50 PM46 °FBroken clouds.15 mph82%30.12 "HgN/A
4:20 PM46 °FPartly sunny.13 mph82%30.09 "HgN/A
3:50 PM46 °FPartly sunny.12 mph82%30.12 "HgN/A
3:20 PM46 °FPartly sunny.16 mph82%30.12 "HgN/A
2:50 PM46 °FPartly sunny.12 mph87%30.12 "HgN/A
2:20 PM45 °FLight rain. Broken clouds.12 mph87%30.12 "Hg6 mi
1:50 PM45 °FLight rain. Mostly cloudy.16 mph81%30.12 "HgN/A
1:20 PM45 °FPartly sunny.13 mph81%30.12 "HgN/A
12:50 PM45 °FBroken clouds.13 mph81%30.12 "HgN/A
12:20 PM43 °FBroken clouds.16 mph81%30.12 "HgN/A
11:50 AM43 °FLight rain. Mostly cloudy.15 mph81%30.12 "HgN/A
11:20 AM43 °FBroken clouds.14 mph81%30.12 "HgN/A
10:50 AM43 °FPartly sunny.14 mph81%30.09 "HgN/A
10:20 AM43 °FPartly sunny.13 mph81%30.09 "HgN/A
9:50 AM43 °FPassing clouds.14 mph81%30.09 "HgN/A
9:20 AM43 °FPassing clouds.14 mph81%30.09 "HgN/A
8:50 AM41 °FPartly cloudy.13 mph87%30.07 "HgN/A
8:20 AM41 °FPassing clouds.13 mph87%30.04 "HgN/A
7:50 AM43 °FOvercast.15 mph81%30.04 "HgN/A
7:20 AM43 °FOvercast.14 mph81%30.04 "HgN/A
6:50 AM41 °FPartly cloudy.14 mph87%30.04 "HgN/A
6:20 AM41 °FPartly cloudy.13 mph87%30.01 "HgN/A
5:20 AM41 °FPassing clouds.14 mph87%30.01 "HgN/A
4:50 AM43 °FPartly cloudy.14 mph81%30.01 "HgN/A
Weather by CustomWeather, © 2014

See weather overviewHow to use our weather pages